Location: Kalberh�ni
(46.4610°N, 7.2453°E)
Time: 02:38:08
(UTC+00:00)

SPOT 5 - Pass Details

Date: 20 June 2021
Orbit: 622 x 815 km, 98.2° (Epoch: 25 July)

Event Time Altitude Azimuth Distance (km) Brightness Sun altitude
Exits shadow 20:48:15 14° 152° (SSE) 2,038 4.6 -10.8°
Maximum altitude 20:52:36 65° 73° (ENE) 817 3.1 -11.3°
Drops below altitude 10° 20:57:24 10° 352° (N) 2,204 6.4 -11.8°
Sets 20:59:37 0° 350° (N) 3,098 7.4 -12.0°
